When you browse on this site, cookies collect data to enhance your experience and personalize the content and advertising you see.
Visit our Privacy Policy to learn more. By continuing to use the site, you agree to this use of cookies and data.
  • In Deutschland
  • Länderverzeichnis
  • Für 7 Tage
  • Wassertemperatur
  • Wetterkarte
  • Widgets
  • user-avatar
    Anmelden

    Stündliche Wetter Tonton

    Heute, 25 Januar, Samstag

    Zeit Temperatur Niederschläge Wind Luftdruck Luftfeuchtigkeit
    00:00 +6°C° 0 mm 1 m/S 764 mmHg 91%
    01:00 +6°C° 0 mm 1 m/S 763 mmHg 91%
    02:00 +5°C° 0 mm 2 m/S 763 mmHg 92%
    03:00 +4°C° 0 mm 2 m/S 762 mmHg 93%
    04:00 +4°C° 0 mm 2 m/S 762 mmHg 93%
    05:00 +4°C° 0 mm 2 m/S 762 mmHg 93%
    06:00 +4°C° 0 mm 2 m/S 761 mmHg 94%
    07:00 +4°C° 0 mm 3 m/S 761 mmHg 93%
    08:00 +4°C° 0 mm 3 m/S 761 mmHg 92%
    09:00 +5°C° 0 mm 3 m/S 761 mmHg 91%
    10:00 +7°C° 0 mm 3 m/S 761 mmHg 90%
    11:00 +6°C° 0 mm 4 m/S 761 mmHg 90%
    12:00 +7°C° 0 mm 4 m/S 761 mmHg 90%
    13:00 +7°C° 0 mm 4 m/S 760 mmHg 91%
    14:00 +8°C° 0 mm 3 m/S 759 mmHg 92%
    15:00 +8°C° 0 mm 3 m/S 759 mmHg 93%
    16:00 +8°C° 0 mm 3 m/S 759 mmHg 94%
    17:00 +8°C° 0 mm 3 m/S 758 mmHg 95%
    18:00 +7°C° 0 mm 4 m/S 758 mmHg 95%
    19:00 +8°C° 0 mm 3 m/S 758 mmHg 96%
    20:00 +8°C° 0 mm 3 m/S 758 mmHg 96%
    21:00 +7°C° 0 mm 3 m/S 757 mmHg 96%
    22:00 +7°C° 0 mm 3 m/S 757 mmHg 96%
    23:00 +7°C° 0 mm 3 m/S 757 mmHg 96%

    Morgen, 26 Januar, Sonntag

    Zeit Temperatur Niederschläge Wind Luftdruck Luftfeuchtigkeit
    00:00 +7°C° 0 mm 3 m/S 757 mmHg 96%
    01:00 +5°C° 0 mm 3 m/S 756 mmHg 96%
    02:00 +5°C° 0 mm 3 m/S 756 mmHg 95%
    03:00 +5°C° 0 mm 3 m/S 756 mmHg 95%
    04:00 +5°C° 0 mm 4 m/S 755 mmHg 94%
    05:00 +5°C° 0 mm 4 m/S 755 mmHg 94%
    06:00 +4°C° 0 mm 4 m/S 755 mmHg 93%
    07:00 +5°C° 0.1 mm 5 m/S 754 mmHg 93%
    08:00 +6°C° 0.1 mm 5 m/S 754 mmHg 93%
    09:00 +7°C° 0.1 mm 6 m/S 754 mmHg 93%
    10:00 +7°C° 0.8 mm 6 m/S 754 mmHg 93%
    11:00 +8°C° 0.8 mm 6 m/S 754 mmHg 94%
    12:00 +8°C° 0.8 mm 6 m/S 753 mmHg 95%
    13:00 +8°C° 1.1 mm 6 m/S 753 mmHg 94%
    14:00 +8°C° 1.1 mm 5 m/S 753 mmHg 93%
    15:00 +8°C° 1.1 mm 4 m/S 752 mmHg 93%
    16:00 +9°C° 0.7 mm 3 m/S 752 mmHg 94%
    17:00 +8°C° 0.7 mm 2 m/S 752 mmHg 94%
    18:00 +8°C° 0.7 mm 1 m/S 752 mmHg 95%
    19:00 +7°C° 0 mm 2 m/S 752 mmHg 95%
    20:00 +6°C° 0 mm 2 m/S 752 mmHg 94%
    21:00 +6°C° 0 mm 2 m/S 752 mmHg 94%
    22:00 +5°C° 0 mm 3 m/S 752 mmHg 93%
    23:00 +5°C° 0 mm 4 m/S 752 mmHg 93%

    übermorgen, 27 Januar, Montag

    Zeit Temperatur Niederschläge Wind Luftdruck Luftfeuchtigkeit
    00:00 +5°C° 0 mm 5 m/S 752 mmHg 93%
    01:00 +5°C° 0 mm 5 m/S 751 mmHg 92%
    02:00 +3°C° 0 mm 5 m/S 751 mmHg 90%
    03:00 +3°C° 0 mm 6 m/S 751 mmHg 89%
    04:00 +4°C° 0.1 mm 6 m/S 750 mmHg 89%
    05:00 +4°C° 0.1 mm 6 m/S 750 mmHg 90%
    06:00 +5°C° 0.1 mm 5 m/S 749 mmHg 90%
    07:00 +5°C° 0 mm 5 m/S 749 mmHg 90%
    08:00 +5°C° 0 mm 5 m/S 749 mmHg 89%
    09:00 +5°C° 0 mm 5 m/S 749 mmHg 89%
    10:00 +6°C° 0.1 mm 5 m/S 749 mmHg 85%
    11:00 +5°C° 0.1 mm 6 m/S 748 mmHg 81%
    12:00 +7°C° 0.1 mm 6 m/S 748 mmHg 77%
    13:00 +7°C° 0.1 mm 6 m/S 747 mmHg 78%
    14:00 +7°C° 0.1 mm 5 m/S 747 mmHg 79%
    15:00 +6°C° 0.1 mm 4 m/S 746 mmHg 80%
    16:00 +6°C° 0.2 mm 4 m/S 746 mmHg 83%
    17:00 +5°C° 0.2 mm 4 m/S 745 mmHg 86%
    18:00 +3°C° 0.2 mm 5 m/S 744 mmHg 89%
    19:00 +3°C° 0.2 mm 5 m/S 743 mmHg 89%
    20:00 +3°C° 0.2 mm 6 m/S 743 mmHg 89%
    21:00 +4°C° 0.2 mm 6 m/S 742 mmHg 90%
    22:00 +3°C° 0.5 mm 6 m/S 742 mmHg 90%
    23:00 +2°C° 0.5 mm 6 m/S 741 mmHg 90%

    28 Januar, Dienstag

    Zeit Temperatur Niederschläge Wind Luftdruck Luftfeuchtigkeit
    00:00 +1°C° 0.5 mm 6 m/S 741 mmHg 90%
    01:00 +1°C° 0.1 mm 6 m/S 742 mmHg 88%
    02:00 0°C° 0.1 mm 7 m/S 742 mmHg 86%
    03:00 0°C° 0.1 mm 8 m/S 743 mmHg 83%
    04:00 0°C° 0 mm 7 m/S 744 mmHg 82%
    05:00 -1°C° 0 mm 7 m/S 745 mmHg 80%
    06:00 -1°C° 0 mm 6 m/S 745 mmHg 78%
    07:00 -1°C° 0 mm 7 m/S 746 mmHg 80%
    08:00 0°C° 0 mm 7 m/S 746 mmHg 82%
    09:00 +1°C° 0 mm 8 m/S 747 mmHg 83%
    10:00 +1°C° 0.2 mm 8 m/S 747 mmHg 82%
    11:00 +2°C° 0.2 mm 9 m/S 748 mmHg 82%
    12:00 +2°C° 0.2 mm 9 m/S 748 mmHg 81%
    13:00 +2°C° 0.2 mm 9 m/S 748 mmHg 79%
    14:00 +2°C° 0.2 mm 9 m/S 748 mmHg 77%
    15:00 +2°C° 0.2 mm 9 m/S 749 mmHg 75%
    16:00 +2°C° 0.2 mm 9 m/S 749 mmHg 77%
    17:00 +1°C° 0.2 mm 8 m/S 749 mmHg 80%
    18:00 +2°C° 0.2 mm 7 m/S 750 mmHg 82%
    19:00 0°C° 0.1 mm 7 m/S 750 mmHg 83%
    20:00 +1°C° 0.1 mm 6 m/S 751 mmHg 83%
    21:00 +1°C° 0.1 mm 6 m/S 752 mmHg 83%
    22:00 +1°C° 0 mm 6 m/S 752 mmHg 83%
    23:00 +1°C° 0 mm 6 m/S 752 mmHg 83%

    29 Januar, Mittwoch

    Zeit Temperatur Niederschläge Wind Luftdruck Luftfeuchtigkeit
    00:00 -1°C° 0 mm 6 m/S 753 mmHg 82%
    01:00 -1°C° 0 mm 6 m/S 753 mmHg 83%
    02:00 0°C° 0 mm 5 m/S 754 mmHg 83%
    03:00 0°C° 0 mm 5 m/S 754 mmHg 83%
    04:00 0°C° 0 mm 5 m/S 755 mmHg 84%
    05:00 0°C° 0 mm 5 m/S 755 mmHg 85%
    06:00 0°C° 0 mm 5 m/S 756 mmHg 85%
    07:00 +1°C° 0 mm 4 m/S 756 mmHg 86%
    08:00 +1°C° 0 mm 4 m/S 757 mmHg 86%
    09:00 +1°C° 0 mm 4 m/S 757 mmHg 87%
    10:00 +4°C° 0 mm 4 m/S 758 mmHg 83%
    11:00 +5°C° 0 mm 5 m/S 758 mmHg 79%
    12:00 +7°C° 0 mm 5 m/S 758 mmHg 76%
    13:00 +7°C° 0 mm 4 m/S 758 mmHg 77%
    14:00 +7°C° 0 mm 4 m/S 758 mmHg 79%
    15:00 +8°C° 0 mm 3 m/S 758 mmHg 80%
    16:00 +6°C° 0 mm 4 m/S 758 mmHg 84%
    17:00 +5°C° 0 mm 4 m/S 758 mmHg 87%
    18:00 +4°C° 0 mm 4 m/S 758 mmHg 91%
    19:00 +4°C° 0 mm 4 m/S 759 mmHg 91%
    20:00 +4°C° 0 mm 4 m/S 759 mmHg 91%
    21:00 +4°C° 0 mm 4 m/S 759 mmHg 92%
    22:00 +4°C° 0 mm 4 m/S 759 mmHg 92%
    23:00 +4°C° 0 mm 4 m/S 759 mmHg 92%

    30 Januar, Donnerstag

    Zeit Temperatur Niederschläge Wind Luftdruck Luftfeuchtigkeit
    00:00 +4°C° 0 mm 3 m/S 758 mmHg 93%
    01:00 +4°C° 0 mm 3 m/S 758 mmHg 93%
    02:00 +4°C° 0 mm 3 m/S 758 mmHg 94%
    03:00 +4°C° 0 mm 3 m/S 757 mmHg 95%
    04:00 +4°C° 0 mm 3 m/S 757 mmHg 94%
    05:00 +4°C° 0 mm 4 m/S 756 mmHg 94%
    06:00 +4°C° 0 mm 4 m/S 756 mmHg 94%
    07:00 +5°C° 0.1 mm 5 m/S 755 mmHg 93%
    08:00 +4°C° 0.1 mm 6 m/S 755 mmHg 92%
    09:00 +5°C° 0.1 mm 6 m/S 754 mmHg 91%
    10:00 +5°C° 0.5 mm 6 m/S 754 mmHg 92%
    11:00 +7°C° 0.5 mm 6 m/S 753 mmHg 94%
    12:00 +7°C° 0.5 mm 6 m/S 753 mmHg 95%
    13:00 +7°C° 0.1 mm 6 m/S 752 mmHg 96%
    14:00 +8°C° 0.1 mm 5 m/S 751 mmHg 97%
    15:00 +8°C° 0.1 mm 4 m/S 751 mmHg 97%
    16:00 +8°C° 0.1 mm 4 m/S 751 mmHg 98%
    17:00 +9°C° 0.1 mm 3 m/S 751 mmHg 98%
    18:00 +9°C° 0.1 mm 2 m/S 751 mmHg 98%
    19:00 +10°C° 0 mm 2 m/S 751 mmHg 98%
    20:00 +10°C° 0 mm 2 m/S 751 mmHg 98%
    21:00 +10°C° 0 mm 2 m/S 751 mmHg 97%
    22:00 +10°C° 0 mm 2 m/S 751 mmHg 97%
    23:00 +10°C° 0 mm 2 m/S 752 mmHg 97%
    Mehr zeigen